Weather History for Cape Girardeau, MO

Change the Weather History Date:

Thursday, January 3, 2013

  Actual Average Record
Temperature  
Mean Temperature 30 °F 33 °F  
Max Temperature 41 °F 42 °F 68 °F (2004)
Min Temperature 18 °F 24 °F -3 °F (2001)
Degree Days  
Heating Degree Days 35 32  
Month to date heating degree days 112 96  
Since 1 July heating degree days 1736 1847  
Cooling Degree Days 0 0  
Month to date cooling degree days 0 0  
Year to date cooling degree days 0 0  
Moisture  
Dew Point 22 °F    
Average Humidity 74    
Maximum Humidity 92    
Minimum Humidity 55    
Precipitation  
Precipitation 0.00 in 0.12 in 2.92 in (2000)
Month to date precipitation 0.00 0.36  
Year to date precipitation 0.00 0.36  
Sea Level Pressure  
Sea Level Pressure 30.36 in    
Wind  
Wind Speed 1 mph (WSW)    
Max Wind Speed 7 mph    
Max Gust Speed 10 mph    
Visibility 8 miles    
Events      
T = Trace of Precipitation, MM = Missing Value Source: NWS Daily Summary

Daily Weather History Graph

Daily Weather History Graph

Search for Another Location

Airport:

Trip Planner

Search our weather history database for the weather conditions in past years. The results will help you decide how hot, cold, wet, or windy it might be!

Date:

Astronomy

Jan. 03, 2013 Rise Set
Actual Time 7:12 AM CST 4:53 PM CST
Civil Twilight 6:43 AM CST 5:22 PM CST
Nautical Twilight 6:11 AM CST 5:55 PM CST
Astronomical Twilight 5:39 AM CST 6:26 PM CST
Moon 11:19 PM CST (1/3) 10:32 AM CST (1/3)
Length of Visible Light 10h 39m
Length of Day
9h 41m
Waning Gibbous, 65% of the Moon is Illuminated
Jan 3
Waning Gibbous
Jan 4
Last Quarter
Jan 11
New
Jan 18
First Quarter
Jan 26
Full

Hourly Weather History & Observations

Time (CST) Temp. Windchill Dew Point Humidity Pressure Visibility Wind Dir Wind Speed Gust Speed Precip Events Conditions
12:53 AM 21.2 °F - 17.6 °F 86% 30.26 in 8.0 mi Calm Calm - N/A   Clear
1:53 AM 21.0 °F - 17.1 °F 85% 30.29 in 8.0 mi Calm Calm - N/A   Clear
2:53 AM 19.9 °F - 17.1 °F 89% 30.29 in 7.0 mi Calm Calm - N/A   Clear
3:53 AM 19.0 °F - 15.1 °F 85% 30.29 in 7.0 mi Calm Calm - N/A   Clear
4:53 AM 19.0 °F - 14.0 °F 81% 30.30 in 7.0 mi Calm Calm - N/A   Clear
5:53 AM 19.0 °F - 16.0 °F 88% 30.33 in 6.0 mi Calm Calm - N/A   Clear
6:53 AM 19.9 °F - 15.1 °F 81% 30.35 in 7.0 mi Calm Calm - N/A   Clear
7:53 AM 21.9 °F - 19.0 °F 89% 30.36 in 5.0 mi Calm Calm - N/A   Clear
8:53 AM 25.0 °F 18.1 °F 21.9 °F 88% 30.37 in 6.0 mi West 5.8 mph - N/A   Clear
9:53 AM 28.0 °F - 23.0 °F 81% 30.39 in 10.0 mi Calm Calm - N/A   Clear
10:53 AM 33.1 °F 30.0 °F 25.0 °F 72% 30.39 in 9.0 mi Variable 3.5 mph - N/A   Clear
11:53 AM 36.0 °F 31.1 °F 26.1 °F 67% 30.38 in 10.0 mi WNW 5.8 mph - N/A   Clear
12:53 PM 37.0 °F 33.3 °F 28.9 °F 73% 30.37 in 10.0 mi West 4.6 mph - N/A   Clear
1:53 PM 37.9 °F 35.5 °F 28.0 °F 68% 30.36 in 10.0 mi WSW 3.5 mph - N/A   Clear
2:53 PM 41.0 °F - 27.0 °F 57% 30.37 in 10.0 mi Calm Calm - N/A   Clear
3:53 PM 39.0 °F 36.8 °F 30.0 °F 70% 30.37 in 10.0 mi SW 3.5 mph - N/A   Clear
4:53 PM 35.1 °F 30.1 °F 28.0 °F 76% 30.38 in 10.0 mi South 5.8 mph - N/A   Clear
6:53 PM 30.9 °F - 27.0 °F 85% 30.41 in 10.0 mi Calm Calm - N/A   Clear
7:53 PM 28.0 °F - 25.0 °F 88% 30.42 in 7.0 mi Calm Calm - N/A   Clear
8:53 PM 27.0 °F - 25.0 °F 92% 30.43 in 6.0 mi Calm Calm - N/A   Clear
10:53 PM 25.0 °F - 23.0 °F 92% 30.44 in 5.0 mi Calm Calm - N/A   Clear
11:53 PM 25.0 °F - 21.9 °F 88% 30.43 in 5.0 mi Calm Calm - N/A   Clear